Location: Ferchesar
(52.6477°N, 12.4298°E)
Time: 17:22:27
(UTC+01:00)

Tiros 1 - Pass Details

Date: 08 December 2021
Orbit: 629 x 664 km, 48.4° (Epoch: 22 January)

Event Time Altitude Azimuth Distance (km) Brightness Sun altitude
Rises 19:49:07 0° 260° (W) 2,926 11.5 -34.0°
Reaches altitude 10° 19:51:29 10° 256° (WSW) 2,022 10.4 -34.3°
Enters shadow 19:53:01 20° 249° (WSW) 1,464 9.4 -34.6°
Maximum altitude 19:55:59 51° 181° (S) 805 - -35.0°
Drops below altitude 10° 20:00:33 10° 106° (ESE) 2,042 - -35.7°
Sets 20:02:56 0° 101° (E) 2,958 - -36.1°
